Tracking 18984 objects as of 24-Feb-2018
HD Live streaming from Space Station
objects crossing your sky now

FAISAT 2V

Track FAISAT 2V now!
10-day predictions
FAISAT 2V is classified as:


NORAD ID: 24954
Int'l Code: 1997-052B
Perigee: 942.7 km
Apogee: 999.7 km
Inclination: 82.9 °
Period: 104.4 minutes
Semi major axis: 7342 km
RCS: 0.9069 m2 (medium)
Launch date: September 23, 1997
Source: United States (US)
Launch site: PLESETSK MISSILE AND SPACE COMPLEX (PKMTR)
aabbcc
Your satellite tracking list
Your tracking list is empty




NASA's NSSDC Master Catalog

Two Line Element Set (TLE):
1 24954U 97052B   18054.56424032 +.00000031 +00000-0 +14998-4 0  9990
2 24954 082.9205 098.8052 0038819 207.7406 305.0414 13.79964514028296
Source of the keplerian elements: AFSPC